{"data":{"norad_id":49770,"intl_designator":"2021-115AY","name":"STARLINK-3191","alt_names":[],"object_type":"PAYLOAD","status":"ACTIVE","operator":null,"country":"US","launch_date":"2021-12-02","launch_site_code":"AFETR","launch_vehicle":null,"mission":null,"orbit_class":"UNKNOWN","rcs_meters":null,"size_class":null,"mass_kg":null,"dimensions":null,"purposes":["comms"],"wikipedia_slug":null,"has_3d_model":false,"image_url":null,"decayed_at":null,"tle_current":{"epoch":"2026-09-19T22:16:05.255904Z","epoch_age_seconds":94463,"freshness":"FRESH","line1":"1 49770U 21115AY  26262.92783861  .00001041  00000+0  45307-4 0  9997","line2":"2 49770  53.1612 336.4858 0001257  69.6098 290.5038 15.31695903266268","mean_motion":15.31695903,"eccentricity":0.0001257,"inclination_deg":53.1612,"raan_deg":336.4858,"arg_perigee_deg":69.6098,"mean_anomaly_deg":290.5038,"bstar":4.5307e-5,"rev_number":26626,"period_min":94.013439428779,"perigee_km":469.89130282321,"apogee_km":471.61311357015,"semimajor_km":6848.8892081967,"source":"CELESTRAK","updated_at":"2026-09-20T09:00:39.412561Z"}}}